Location: Ponte Samoggia
(44.5667°N, 11.1333°E)
Time: 21:19:38
(UTC+00:00)

SL-16 R/B - Pass Details

Date: 26 May 2022
Orbit: 985 x 1006 km, 99.6° (Epoch: 29 June)

Event Time Altitude Azimuth Distance (km) Brightness Sun altitude
Exits shadow 01:14:43 21° 170° (S) 2,074 3.8 -18.7°
Maximum altitude 01:19:05 79° 255° (WSW) 1,020 2.5 -18.3°
Drops below altitude 10° 01:25:22 10° 343° (NNW) 2,782 5.4 -17.7°
Sets 01:27:52 0° 344° (NNW) 3,738 6.2 -17.4°
